This is the latest recevied weather packets stored in our database for station/object K9JVA. If no packets are shown the sender has not sent any weather packets the latest 10 day(s).
| Time | Temp. | Humidity | Pressure | Rain* | Wind** | Luminosity | Snow |
|---|---|---|---|---|---|---|---|
| 1777394679 | 21.11° C | 78% | 1015.1 hPa | 0 mm | - | - | - |
| 1777394240 | 21.11° C | 79% | 1015.1 hPa | 0 mm | - | - | - |
| 1777393938 | 20.56° C | 79% | 1015.1 hPa | 0 mm | - | - | - |
| 1777391119 | 20° C | 83% | 1014.9 hPa | 0 mm | - | - | - |
| 1777390665 | 20° C | 83% | 1014.8 hPa | 0 mm | - | - | - |
| 1777390219 | 20° C | 83% | 1014.7 hPa | 0 mm | - | - | - |
| 1777387640 | 17.78° C | 90% | 1014.7 hPa | 0 mm | - | - | - |
| 1777387040 | 17.78° C | 90% | 1014.6 hPa | 0 mm | - | - | - |
| 1777385631 | 17.22° C | 92% | 1014.3 hPa | 0 mm | - | - | - |
| 1777385182 | 17.22° C | 92% | 1014.2 hPa | 0 mm | - | - | - |
| 1777384881 | 17.22° C | 92% | 1014.1 hPa | 0 mm | - | - | - |
| 1777384281 | 16.67° C | 92% | 1013.9 hPa | 0 mm | - | - | - |
| 1777383519 | 16.67° C | 94% | 1013.6 hPa | 0 mm | - | - | - |
| 1777381522 | 16.67° C | 94% | 1013.5 hPa | 0 mm | - | - | - |
| 1777380462 | 16.11° C | 94% | 1013.1 hPa | 0 mm | - | - | - |
| 1777380023 | 16.11° C | 94% | 1013.2 hPa | 0 mm | - | - | - |
| 1777379003 | 16.11° C | 96% | 1012.9 hPa | 0 mm | - | - | - |
| 1777378102 | 16.11° C | 97% | 1012.5 hPa | 0 mm | - | - | - |
| 1777377204 | 15.56° C | 97% | 1012.4 hPa | 0 mm | - | - | - |
| 1777374144 | 15.56° C | 99% | 1011.4 hPa | 0 mm | - | - | - |
| 1777370426 | 15° C | 99% | 1011.1 hPa | 0 mm | - | - | - |
| 1777368208 | 15° C | 99% | 1010.8 hPa | 0 mm | - | - | - |
| 1777367607 | 15° C | 99% | 1010.7 hPa | 0 mm | - | - | - |
| 1777367307 | 15° C | 99% | 1010.6 hPa | 0 mm | - | - | - |
| 1777366889 | 15° C | 99% | 1010.5 hPa | 0 mm | - | - | - |
* Rain since midnight (hover to see other rain measurements)
** Current wind speed in m/s (hover to see current wind gust speed)